User: anonymous   Login
Location: Unspecified
(0.0000°N, 0.0000°E)
Time: 07:53:17
(UTC+00:00)
Language:

Oscar 10/S400 - Orbit

View from above orbital plane
View from above orbital plane
View from above satellite
View from above satellite

Ground track
Ground track

The orbit data is extracted from the following two-line orbital elements,

1 14129U 83058B   19078.04938797 -.00000353 +00000-0 +00000-0 0  9995
2 14129 026.6872 291.3935 6004497 116.9035 315.3091 02.05870507240997
Epoch (UTC): 19 March 2019 01:11:07
Eccentricity: 0.6004497
inclination: 26.6872°
perigee height: 4051 km
apogee height: 35396 km
right ascension of ascending node: 291.3935°
argument of perigee: 116.9035°
revolutions per day: 2.05870507
mean anomaly at epoch: 315.3091°
orbit number at epoch: 24099

The dashed part of the orbit path shows where the satellite is in the earth's shadow,  

DLR